Dothan, AL

4:25 AM CDT on September 18, 2019 (GMT -0500)
Dothan Regional

Weather History for KDHN - August, 2019

Change the Weather History Date:

Saturday, August 24, 2019

  Actual Average Record
Temperature  
Mean Temperature 85 °F 81 °F  
Max Temperature 95 °F 91 °F 101 °F (1938)
Min Temperature 74 °F 71 °F 60 °F (1957)
Degree Days  
Heating Degree Days 0    
Month to date heating degree days 0  
Since 1 June heating degree days 0  
Since 1 July heating degree days 0  
Cooling Degree Days 20    
Month to date cooling degree days 469  
Year to date cooling degree days 2256  
Since 1 June cooling degree days 1596  
Growing Degree Days 33 (Base 50)    
Moisture  
Dew Point 71 °F    
Average Humidity 74    
Maximum Humidity 91    
Minimum Humidity 40    
Precipitation  
Precipitation T in 0.14 in 1.22 in (1955)
Month to date precipitation 4.02 3.58  
Year to date precipitation 24.13 37.49  
Sea Level Pressure  
Sea Level Pressure 30.02 in    
Wind  
Wind Speed 4 mph (NE)    
Max Wind Speed 13 mph    
Max Gust Speed 17 mph    
Visibility 9 miles    
Events Rain , Thunderstorm    
T = Trace of Precipitation, MM = Missing Value Source: NWS Daily Summary

Daily Weather History Graph

Daily Weather History Graph

Search for Another Location

Airport or City:

Astronomy

Aug. 24, 2019 Rise Set
Actual Time 6:12 AM CDT 7:15 PM CDT
Civil Twilight 5:47 AM CDT 7:40 PM CDT
Nautical Twilight 5:17 AM CDT 8:09 PM CDT
Astronomical Twilight 4:47 AM CDT 8:40 PM CDT
Moon 12:13 AM CDT (8/24) 2:19 PM CDT (8/24)
Length of Visible Light 13h 52m
Length of Day
13h 02m
Last Quarter, 39% of the Moon is Illuminated
Aug 24
Last Quarter
Aug 30
New
Sep 5
First Quarter
Sep 13
Full
Sep 21
Last Quarter

Hourly Weather History & Observations

Time (CDT) Temp. Heat Index Dew Point Humidity Pressure Visibility Wind Dir Wind Speed Gust Speed Precip Events Conditions
12:53 AM 77.0 °F - 73.0 °F 88% 30.02 in 10.0 mi NNW 4.6 mph - N/A   Clear
1:53 AM 75.9 °F - 73.0 °F 91% 30.01 in 10.0 mi Calm Calm - N/A   Clear
2:53 AM 75.0 °F - 72.0 °F 90% 30.00 in 10.0 mi Calm Calm - N/A   Clear
3:53 AM 75.9 °F - 72.0 °F 87% 29.99 in 10.0 mi Calm Calm - N/A   Clear
4:53 AM 73.9 °F - 71.1 °F 91% 30.01 in 10.0 mi NNW 3.5 mph - N/A   Clear
5:53 AM 75.0 °F - 71.1 °F 87% 30.02 in 10.0 mi Calm Calm - N/A   Clear
6:53 AM 75.0 °F - 72.0 °F 90% 30.04 in 10.0 mi North 4.6 mph - N/A   Clear
7:53 AM 77.0 °F - 73.0 °F 88% 30.06 in 10.0 mi NNW 3.5 mph - N/A   Clear
8:53 AM 80.1 °F 84.2 °F 73.0 °F 79% 30.06 in 10.0 mi North 4.6 mph - N/A   Clear
9:53 AM 82.9 °F 88.8 °F 73.0 °F 72% 30.06 in 10.0 mi NNE 4.6 mph - N/A   Clear
10:53 AM 87.1 °F 94.5 °F 73.0 °F 63% 30.05 in 10.0 mi NW 3.5 mph - N/A   Clear
11:53 AM 89.1 °F 93.7 °F 69.1 °F 52% 30.03 in 10.0 mi Calm Calm - N/A   Clear
12:53 PM 91.0 °F 95.6 °F 69.1 °F 48% 30.02 in 10.0 mi SE 3.5 mph - N/A   Scattered Clouds
1:53 PM 91.0 °F 95.6 °F 69.1 °F 48% 29.99 in 10.0 mi SSW 4.6 mph - N/A   Mostly Cloudy
2:53 PM 93.0 °F 97.9 °F 69.1 °F 45% 29.96 in 10.0 mi Variable 3.5 mph - N/A   Scattered Clouds
3:53 PM 93.9 °F 97.0 °F 66.0 °F 40% 29.94 in 10.0 mi West 3.5 mph - N/A   Scattered Clouds
5:53 PM 93.9 °F 100.8 °F 71.1 °F 47% 29.94 in 10.0 mi Calm Calm - N/A   Clear
6:53 PM 86.0 °F 93.8 °F 73.9 °F 67% 29.95 in 10.0 mi North 5.8 mph - N/A   Clear
7:53 PM 84.9 °F 92.1 °F 73.9 °F 69% 29.97 in 10.0 mi NNW 4.6 mph - N/A   Clear
8:53 PM 84.0 °F 91.9 °F 75.0 °F 74% 29.99 in 10.0 mi East 3.5 mph - N/A   Scattered Clouds
9:53 PM 79.0 °F - 71.1 °F 77% 30.03 in 4.0 mi ENE 8.1 mph - N/A Rain Rain
10:15 PM 75.0 °F - 71.1 °F 87% 30.06 in 2.0 mi NE 9.2 mph - N/A Rain , Thunderstorm Heavy Thunderstorms and Rain
10:20 PM 75.0 °F - 70.0 °F 84% 30.06 in 1.5 mi ENE 8.1 mph - N/A Rain , Thunderstorm Heavy Thunderstorms and Rain
10:35 PM 73.9 °F - 70.0 °F 87% 30.05 in 2.0 mi East 9.2 mph - N/A Rain , Thunderstorm Heavy Thunderstorms and Rain
10:45 PM 75.9 °F - 71.1 °F 85% 30.05 in 5.0 mi ESE 9.2 mph - N/A Rain Rain
10:53 PM 75.9 °F - 71.1 °F 85% 30.04 in 9.0 mi SE 8.1 mph - N/A Rain Light Rain
11:53 PM 75.9 °F - 72.0 °F 87% 30.02 in 10.0 mi ESE 6.9 mph - N/A   Overcast